Location: Palomar Mountain Lodge
(33.3110°N, 116.8495°W)
Time: 22:55:37
(UTC-07:00)

Cosmos 44 Rocket - Pass Details

Date: 12 July 2018
Orbit: 637 x 754 km, 65.1° (Epoch: 23 September)

Event Time Altitude Azimuth Distance (km) Brightness Sun altitude
Rises 22:19:13 0° 224° (SW) 2,990 6.5 -23.8°
Reaches altitude 10° 22:21:35 10° 231° (SW) 2,098 5.8 -24.1°
Maximum altitude 22:26:07 42° 303° (WNW) 980 4.4 -24.7°
Drops below altitude 10° 22:30:50 10° 14° (NNE) 2,182 6.3 -25.3°
Sets 22:33:21 0° 21° (NNE) 3,125 7.1 -25.6°
